Regional Weather Roundup
Issued by NWS Charleston, SC

Current Version | Previous Version | Text Only | Print | Product List | Glossary On
Versions: 1 2 3 4 5 6 7 8 9 10 11 12 13 14 15 16 17 18 19 20 21 22 23 24 25 26 27 28 29 30 31 32 33 34 35 36 37 38 39 40 41 42 43 44 45 46 47 48 49 50
000 ASUS42 KCHS 301212 RWRCHS REGIONAL WEATHER ROUNDUP NATIONAL WEATHER SERVICE CHARLESTON SC 800 AM EDT SAT MAY 30 2015 NOTE: "FAIR" INDICATES FEW OR NO CLOUDS BELOW 12,000 FEET WITH NO SIGNIFICANT WEATHER AND/OR OBSTRUCTIONS TO VISIBILITY. NOT ALL STATIONS ARE QUALITY CONTROLLED BY THE NATIONAL WEATHER SERVICE. USE DATA WITH CAUTION...ESPECIALLY DEWPOINT OBSERVATIONS. SCZ027-030-031-034>040-042>050-301300- ...SOUTHEAST SOUTH CAROLINA... CITY SKY/WX TMP DP RH WIND PRES REMARKS N CHARLESTON MOSUNNY 73 69 87 NE6 30.18R 6HR MIN TEMP: 67; 6HR MAX TEMP: 73; WATERFRONT PAR N/A 77 71 82 E9 30.14R MOUNT PLEASANT LGT RAIN 72 70 94 CALM 30.18R JOHNS ISLAND MOSUNNY 77 72 83 E8 30.17R PINOPOLIS NOT AVBL MONCKS CORNER N/A 72 68 88 E3 30.19R SUMMERVILLE FAIR 70 70 100 CALM 30.19R BEAUFORT MCAS CLOUDY 72 70 93 NE6 30.16R 6HR MIN TEMP: 67; 6HR MAX TEMP: 72; BEAUFORT ARPT FAIR 75 73 94 NE7 30.16R FOG HILTON HEAD IS PTSUNNY 77 72 83 NE6 30.17R WALTERBORO SUNNY 70 68 94 NE5 30.19R ALLENDALE FOG 68 68 100 CALM 30.18R VSB 1/2 ...SOUTHERN MIDLANDS AND PEE DEE... CITY SKY/WX TMP DP RH WIND PRES REMARKS GEORGETOWN NOT AVBL KINGSTREE NOT AVBL ORANGEBURG FOG 69 67 93 NE6 30.19R VSB 1/4 6HR MIN TEMP: 65; 6HR MAX TEMP: 70; BARNWELL FOG 70 70 100 CALM 30.19R VSB 1/2 AIKEN RAIN 64 63 94 E5 30.23R VSB<1/4 MANNING CLOUDY 68 64 88 CALM 30.20R FOG COLUMBIA CLOUDY 71 67 87 E5 30.20R FOG 6HR MIN TEMP: 65; 6HR MAX TEMP: 73; SUMTER CLOUDY 68 68 100 NE3 30.19R FOG FLORENCE MOSUNNY 74 68 81 CALM 30.21R 6HR MIN TEMP: 66; 6HR MAX TEMP: 74; MYRTLE BEACH MOSUNNY 79 66 65 VRB6 30.21R N MYRTLE BEACH MOSUNNY 73 67 81 N3 30.20R 6HR MIN TEMP: 69; 6HR MAX TEMP: 76; $$ GAZ063-065-086>088-099>101-113>116-118-119-134>141-150-301300- ...SOUTHEAST GEORGIA... CITY SKY/WX TMP DP RH WIND PRES REMARKS SAVANNAH ARPT MOSUNNY 70 69 97 NE5 30.16R 6HR MIN TEMP: 67; 6HR MAX TEMP: 71; HUNTER AAF SUNNY 74 73 95 VRB5 30.13R 6HR MIN TEMP: 71; 6HR MAX TEMP: 74; FORT STEWART SUNNY 71 69 93 N2 30.13R FOG 6HR MIN TEMP: 66; 6HR MAX TEMP: 71; STATESBORO SUNNY 70 50 49 E5 30.17R SYLVANIA SUNNY 72 71 96 E3 30.18R CLAXTON FAIR 70 68 94 CALM 30.16R ...CSRA...CENTRAL AND FAR SOUTHEAST GEORGIA... CITY SKY/WX TMP DP RH WIND PRES REMARKS THOMSON SUNNY 71 70 97 CALM 30.23R AUGUSTA-BUSH SUNNY 69 67 93 CALM 30.18R 6HR MIN TEMP: 61; 6HR MAX TEMP: 69; AUGUSTA-DANIEL SUNNY 72 67 84 E3 30.20R SWAINSBORO FAIR N/A N/A N/A E3 30.18R VIDALIA SUNNY 72 68 88 NE5 30.17R EASTMAN FOG 70 70 100 CALM 30.19R VSB 3/4 HAZLEHURST FOG 71 71 100 E3 30.15R VSB 1/4 ALMA MOSUNNY 72 69 90 CALM 30.15R 6HR MIN TEMP: 65; 6HR MAX TEMP: 72; WAYCROSS SUNNY 71 71 97 CALM 30.14R JESUP FAIR 73 72 94 CALM 30.15R BAXLEY PTSUNNY 72 70 94 NE3 30.15R FOG BRUNSWICK CLOUDY 72 70 94 N3 30.14R SAINT SIMONS NOT AVBL $$ SCZ027-028-034-036>038-045-046-048>050-GAZ119-141-301300- ...LAKE AND SUPPLEMENTAL COASTAL OBSERVATIONS... STATION/POSITION TIME TEMP WIND PRES WAVE SWELL AIR SEA DIR/SP/G HT/PER HT/PER/DIR (UTC) (F) (DEG/KT/KT) (MB) (FT/S) (FT/S/D) UPR LAKE MARION NOT AVBL WINYAH BAY NOT AVBL LAKE MURRAY 1100 71 30/ 1/ 3 1021.7R ACE BASIN NERRS NOT AVBL FORT PULASKI 1100 76 80 90/ 4/ 5 1021.1R SAPELO ISLAND 1100 70 30/ 2 1020.0S $$ ANZ835-935-AMZ111-154-330-350-352-354-370-450-454-472-301300- ...C-MAN AND BUOY OBSERVATIONS... STATION/POSITION TIME TEMP WIND PRES WAVE SWELL AIR SEA DIR/SP/G HT/PER HT/PER/DIR (UTC) (F) (DEG/KT/KT) (MB) (FT/S) (FT/S/D) BUOY 41004 1150 78 79 80/ 12/ 14 1020.8R 4/ 9 3/ 9 BUOY 41008 1150 73 78 120/ 2/ 4 1020.6R 3/ 9 3/ 90/ 9 FOLLY BEACH CMAN 1200 77 80/ 10/ 12 1021.7R CAPERS NEARSHORE 1108 77 100/ 12/ 16 1021.3R FRIPP NEARSHORE 1100 77 100/ 8/ 8 1020.3R STATION/POSITION TIME TEMP WIND PRES WAVE SWELL AIR SEA DIR/SP/G HT/PER HT/PER/DIR (UTC) (F) (DEG/KT/KT) (MB) (FT/S) (FT/S/D) 5E ST. MARYS GA 1121 79 N/A 3/ 9 FRYING PAN BUOY 1150 77 75 120/ 10/ 12 1022.9R 4/ 6 3/110/ 6 BUOY 41025 1150 76 79 110/ 6/ 10 1023.8R 4/ 9 3/100/ 9 CAPE LOOKOUT NC 1200 76 70/ 6/ 6 1023.2R BUOY 41002 1150 74 74 50/ 10/ 12 1021.5R 6/ 9 5/ 80/ 9 BUOY 41010 1120 78 79 90/ 12/ 16 1018.7R ST AUGUSTINE FL 1200 77 78 100/ 6/ 6 1020.3R $$

USA.gov is the U.S. government's official web portal to all federal, state and local government web resources and services.